EZY19D EHAM-EGLL

Flight info

Callsign EZY19D
Flight time N/A
Altitude 24000
Route IDRID L980 LOGAN
Aircraft A320/M-SDE3FGHIRWY/LB1

Departure

Time 2026-04-29 14:04
Airport Amsterdam Airport Schiphol (EHAM)

Arrival

Time N/A
Airport London Heathrow Airport (EGLL)
Time Latitude Longitude Altitude Speed Heading
2026-04-29 13:32 52.31004 4.75411 0 ft 0 kts 148°
2026-04-29 13:48 52.31003 4.75411 0 ft 0 kts 148°
2026-04-29 13:48 52.31023 4.75393 -1 ft 4 kts 154°
2026-04-29 13:49 52.31041 4.75375 -1 ft 4 kts 97°
2026-04-29 13:49 52.31038 4.75344 -1 ft 2 kts 70°
2026-04-29 13:49 52.31037 4.75341 -1 ft 0 kts 70°
2026-04-29 13:53 52.31043 4.75354 -1 ft 4 kts 51°
2026-04-29 13:54 52.31071 4.75411 -1 ft 7 kts 58°
2026-04-29 13:54 52.31094 4.75472 -1 ft 7 kts 53°
2026-04-29 13:54 52.31154 4.75497 -1 ft 12 kts 356°
2026-04-29 13:54 52.31253 4.75486 -1 ft 17 kts 357°
2026-04-29 13:55 52.31387 4.75475 -1 ft 21 kts 357°
2026-04-29 13:55 52.31500 4.75453 -1 ft 8 kts 324°
2026-04-29 13:55 52.31509 4.75379 -1 ft 6 kts 271°
2026-04-29 13:55 52.31492 4.75061 -1 ft 0 kts 283°
2026-04-29 13:56 52.31493 4.75052 -1 ft 5 kts 279°
2026-04-29 13:56 52.31492 4.74845 -1 ft 23 kts 265°
2026-04-29 13:56 52.31479 4.74486 -1 ft 25 kts 267°
2026-04-29 13:56 52.31502 4.74307 -1 ft 10 kts 327°
2026-04-29 13:57 52.31583 4.74301 -1 ft 14 kts
2026-04-29 13:57 52.31680 4.74310 -1 ft 14 kts
2026-04-29 13:57 52.31743 4.74316 -1 ft 14 kts
2026-04-29 13:57 52.31837 4.74326 -1 ft 13 kts
2026-04-29 13:58 52.31925 4.74332 -1 ft 12 kts
2026-04-29 13:58 52.32004 4.74325 -1 ft 12 kts 335°
2026-04-29 13:58 52.32032 4.74183 -1 ft 16 kts 272°
2026-04-29 13:58 52.32043 4.73906 -2 ft 21 kts 273°
2026-04-29 13:59 52.32051 4.73652 -1 ft 24 kts 272°
2026-04-29 13:59 52.32061 4.73459 -1 ft 26 kts 279°
2026-04-29 13:59 52.32173 4.73238 -1 ft 27 kts 317°
2026-04-29 13:59 52.32316 4.73034 -1 ft 28 kts 319°
2026-04-29 14:00 52.32467 4.72822 -1 ft 29 kts 319°
2026-04-29 14:00 52.32624 4.72604 -1 ft 30 kts 318°
2026-04-29 14:00 52.32769 4.72355 -1 ft 31 kts 311°
2026-04-29 14:00 52.32912 4.72088 -1 ft 31 kts 311°
2026-04-29 14:01 52.33030 4.71870 -1 ft 23 kts 311°
2026-04-29 14:01 52.33135 4.71673 -1 ft 21 kts 303°
2026-04-29 14:01 52.33132 4.71499 -1 ft 14 kts 249°
2026-04-29 14:01 52.33165 4.71363 -1 ft 14 kts 312°
2026-04-29 14:02 52.33231 4.71243 -1 ft 15 kts 312°
2026-04-29 14:02 52.33303 4.71110 -1 ft 17 kts 311°
2026-04-29 14:02 52.33383 4.70968 -2 ft 14 kts 314°
2026-04-29 14:02 52.33434 4.70945 -2 ft 7 kts
2026-04-29 14:03 52.33478 4.70950 -2 ft 6 kts
2026-04-29 14:03 52.33602 4.70963 0 ft 48 kts
2026-04-29 14:03 52.34188 4.71012 -3 ft 117 kts
2026-04-29 14:03 52.35194 4.71100 7 ft 169 kts
2026-04-29 14:04 52.36365 4.71217 593 ft 171 kts
2026-04-29 14:04 52.37582 4.71331 1179 ft 185 kts
2026-04-29 14:04 52.38944 4.71453 1586 ft 208 kts
2026-04-29 14:04 52.40494 4.71570 1980 ft 235 kts 357°
2026-04-29 14:05 52.42089 4.70718 2569 ft 252 kts 323°
2026-04-29 14:05 52.43230 4.68527 3404 ft 259 kts 292°
2026-04-29 14:05 52.43450 4.65626 4340 ft 262 kts 259°
2026-04-29 14:05 52.42884 4.62767 5306 ft 264 kts 249°
2026-04-29 14:06 52.42213 4.59946 6246 ft 269 kts 248°
2026-04-29 14:06 52.41488 4.57095 7134 ft 273 kts 247°
2026-04-29 14:06 52.40745 4.54249 8033 ft 276 kts 248°
2026-04-29 14:06 52.40018 4.51306 8930 ft 280 kts 249°
2026-04-29 14:07 52.39307 4.48335 9780 ft 283 kts 249°
2026-04-29 14:07 52.38581 4.45282 10404 ft 297 kts 249°
2026-04-29 14:07 52.37803 4.42004 10703 ft 320 kts 249°
2026-04-29 14:07 52.36967 4.38500 11100 ft 338 kts 249°
2026-04-29 14:08 52.36101 4.34897 11792 ft 344 kts 249°
2026-04-29 14:08 52.35217 4.31234 12543 ft 348 kts 249°
2026-04-29 14:08 52.34318 4.27532 13268 ft 352 kts 249°
2026-04-29 14:08 52.33420 4.23845 13968 ft 356 kts 248°
2026-04-29 14:09 52.32497 4.20066 14660 ft 360 kts 248°
2026-04-29 14:09 52.31487 4.16308 15336 ft 364 kts 242°
2026-04-29 14:09 52.30104 4.12824 15981 ft 368 kts 232°
2026-04-29 14:09 52.28524 4.09518 16625 ft 371 kts 232°
2026-04-29 14:10 52.26930 4.06191 17249 ft 374 kts 232°
2026-04-29 14:10 52.25317 4.02825 17864 ft 378 kts 232°
2026-04-29 14:10 52.23690 3.99428 18482 ft 381 kts 232°
2026-04-29 14:10 52.22046 3.96004 19044 ft 385 kts 232°
2026-04-29 14:11 52.20414 3.92601 19635 ft 388 kts 232°
2026-04-29 14:11 52.18745 3.89117 20207 ft 392 kts 232°
2026-04-29 14:11 52.17059 3.85607 20769 ft 395 kts 232°
2026-04-29 14:11 52.15356 3.82072 21316 ft 398 kts 232°
2026-04-29 14:12 52.13635 3.78513 21835 ft 402 kts 232°
2026-04-29 14:12 52.11900 3.74928 22354 ft 405 kts 232°
2026-04-29 14:12 52.10154 3.71313 22836 ft 408 kts 232°
2026-04-29 14:12 52.08394 3.67673 23305 ft 411 kts 232°
2026-04-29 14:13 52.06618 3.64013 23760 ft 414 kts 232°
2026-04-29 14:13 52.04848 3.60379 23966 ft 415 kts 232°
2026-04-29 14:13 52.03049 3.56686 24009 ft 418 kts 232°
2026-04-29 14:13 52.01245 3.52977 24008 ft 419 kts 232°
2026-04-29 14:14 51.99440 3.49266 24009 ft 419 kts 232°
2026-04-29 14:14 51.97671 3.45512 24008 ft 419 kts 233°
2026-04-29 14:14 51.95945 3.41707 24012 ft 419 kts 234°
2026-04-29 14:14 51.94242 3.37876 24008 ft 419 kts 234°
2026-04-29 14:15 51.92545 3.34041 24008 ft 419 kts 234°
2026-04-29 14:15 51.90841 3.30215 24008 ft 419 kts 234°
2026-04-29 14:15 51.89126 3.26403 24008 ft 419 kts 234°
2026-04-29 14:15 51.87409 3.22597 24010 ft 419 kts 236°
2026-04-29 14:16 51.85966 3.18579 24003 ft 418 kts 245°
2026-04-29 14:16 51.84953 3.14183 24001 ft 417 kts 255°
2026-04-29 14:16 51.84418 3.09578 23999 ft 417 kts 264°
2026-04-29 14:16 51.84124 3.04914 23998 ft 417 kts 264°
2026-04-29 14:17 51.83826 3.00251 23996 ft 417 kts 264°
2026-04-29 14:17 51.83524 2.95588 23995 ft 417 kts 264°
2026-04-29 14:17 51.83217 2.90926 23994 ft 417 kts 264°
2026-04-29 14:17 51.82907 2.86265 23994 ft 417 kts 264°
2026-04-29 14:18 51.82600 2.81675 23993 ft 417 kts 264°
2026-04-29 14:18 51.82286 2.77010 23993 ft 417 kts 264°
2026-04-29 14:18 51.81970 2.72350 23993 ft 417 kts 264°
2026-04-29 14:18 51.81652 2.67691 23993 ft 417 kts 264°
2026-04-29 14:19 51.81333 2.63033 23993 ft 417 kts 264°
2026-04-29 14:19 51.81013 2.58375 23993 ft 417 kts 264°
2026-04-29 14:19 51.80691 2.53718 23993 ft 417 kts 263°
2026-04-29 14:19 51.80365 2.49043 23993 ft 417 kts 263°
2026-04-29 14:20 51.80041 2.44459 23993 ft 417 kts 263°
2026-04-29 14:20 51.79712 2.39804 23993 ft 417 kts 263°
2026-04-29 14:20 51.79383 2.35149 23993 ft 417 kts 263°
2026-04-29 14:20 51.79051 2.30496 23994 ft 417 kts 263°
2026-04-29 14:21 51.78715 2.25823 23994 ft 417 kts 263°
2026-04-29 14:21 51.78379 2.21174 23994 ft 417 kts 263°
2026-04-29 14:21 51.78075 2.16511 23994 ft 417 kts 264°
2026-04-29 14:21 51.77804 2.11863 23994 ft 417 kts 265°
2026-04-29 14:22 51.77547 2.07195 23994 ft 417 kts 265°
2026-04-29 14:22 51.77291 2.02527 23994 ft 417 kts 265°
2026-04-29 14:22 51.77028 1.97927 23994 ft 417 kts 264°
2026-04-29 14:22 51.76752 1.93262 23994 ft 417 kts 264°
2026-04-29 14:23 51.76470 1.88612 23994 ft 417 kts 264°
2026-04-29 14:23 51.76183 1.83950 23994 ft 417 kts 264°
2026-04-29 14:23 51.75895 1.79289 23994 ft 417 kts 264°
2026-04-29 14:23 51.75606 1.74628 23994 ft 417 kts 264°
2026-04-29 14:24 51.75315 1.69989 23856 ft 414 kts 264°
2026-04-29 14:24 51.75022 1.65380 23604 ft 411 kts 264°
2026-04-29 14:24 51.74735 1.60864 23358 ft 409 kts 264°
2026-04-29 14:24 51.74448 1.56307 23072 ft 406 kts 264°
2026-04-29 14:25 51.74163 1.51802 22532 ft 401 kts 264°
2026-04-29 14:25 51.73882 1.47353 21989 ft 398 kts 264°
2026-04-29 14:25 51.73598 1.42933 21480 ft 394 kts 264°
2026-04-29 14:25 51.73312 1.38551 20977 ft 391 kts 264°
2026-04-29 14:26 51.73026 1.34210 20485 ft 387 kts 264°
2026-04-29 14:26 51.72741 1.29911 19997 ft 383 kts 264°
2026-04-29 14:26 51.72458 1.25656 19529 ft 380 kts 264°
2026-04-29 14:26 51.72180 1.21457 19052 ft 376 kts 264°
2026-04-29 14:27 51.71907 1.17342 18591 ft 372 kts 264°
2026-04-29 14:27 51.71633 1.13211 18122 ft 369 kts 264°
2026-04-29 14:27 51.71362 1.09149 17655 ft 365 kts 264°
2026-04-29 14:28 51.70816 1.01171 17036 ft 345 kts 264°
2026-04-29 14:28 51.70550 0.97359 16599 ft 340 kts 263°
2026-04-29 14:28 51.70288 0.93593 16127 ft 336 kts 264°
2026-04-29 14:28 51.70029 0.89868 15643 ft 335 kts 264°
2026-04-29 14:29 51.69770 0.86152 15245 ft 332 kts 263°
2026-04-29 14:29 51.69513 0.82459 14841 ft 330 kts 263°
2026-04-29 14:29 51.69260 0.78852 14444 ft 328 kts 263°
2026-04-29 14:29 51.69000 0.75213 14041 ft 326 kts 263°
2026-04-29 14:30 51.68741 0.71593 13636 ft 324 kts 263°
2026-04-29 14:30 51.68486 0.67999 13233 ft 322 kts 263°
2026-04-29 14:30 51.68400 0.66788 13090 ft 321 kts 263°